Home > Weather > Sunnyvale > Past weeks

Flag for USA Past Weather in Sunnyvale, California, USA — Yesterday and Last 2 Weeks

Now
74 °F

Sunny.


Feels Like: 77 °F
Forecast: 60 / 84 °F
Wind: 7 mph from North

Location: Moffett Field

Current Time: Jul 29, 2016 at 12:57:00 PM

Latest Report: Jul 29, 2016 at 11:56 AM


Visibility: 10 mi

Pressure: 29.86 "Hg

Humidity: 57%

Dew Point: 58 °F

Location of SunnyvaleLocation

Past Weather in Sunnyvale — Graph

°F

Sunnyvale Temperature Yesterday

Maximum temperature yesterday: 80 °F (at 2:56 PM)
Minimum temperature yesterday: 61 °F (at 3:56 AM)
Average temperature yesterday: 68 °F

High & Low Weather Summary for the Past Weeks

 TemperatureHumidityPressure
High88 °F (Jul 26, 2:56 PM)90% (Jul 15, 1:56 AM)30.14 "Hg (Jul 15, 1:56 AM)
Low55 °F (Jul 19, 5:56 AM)25% (Jul 26, 2:56 PM)29.83 "Hg (Jul 26, 4:56 PM)
Average67 °F66%29.97 "Hg
* Reported Jul 14 11:56 AM — Jul 29 11:56 AM, Sunnyvale, Weather by CustomWeather, © 2016

Note: Actual official high and low records may vary slightly from our data, if they occured in-between our weather recording intervals... More about our weather records

Advertising

Sunnyvale Weather History for the Previous 24 Hours

Scroll right to see more
 ConditionsComfort  
Time TempWeatherWind HumidityBarometerVisibility
11:56 AM
Fri, Jul 29
74 °FSunny.7 mph57%29.86 "Hg10 mi
10:56 AM70 °FSunny.5 mph66%29.87 "Hg10 mi
9:56 AM67 °FSunny.7 mph71%29.88 "Hg10 mi
8:56 AM65 °FPassing clouds.5 mph76%29.89 "Hg10 mi
7:56 AM62 °FLow clouds.3 mph83%29.89 "Hg10 mi
6:56 AM61 °FLow clouds.No wind83%29.88 "Hg10 mi
5:56 AM60 °FLow clouds.3 mph86%29.87 "Hg10 mi
4:56 AM61 °FLow clouds.6 mph83%29.86 "Hg10 mi
3:56 AM61 °FLow clouds.3 mph83%29.86 "Hg10 mi
2:56 AM61 °FClear.5 mph83%29.86 "Hg10 mi
1:56 AM62 °FClear.3 mph80%29.87 "Hg10 mi
12:56 AM63 °FClear.5 mph78%29.87 "Hg10 mi
11:56 PM
Thu, Jul 28
63 °FClear.3 mph78%29.88 "Hg10 mi
10:56 PM64 °FClear.3 mph78%29.89 "Hg10 mi
9:56 PM63 °FClear.5 mph78%29.89 "Hg10 mi
8:56 PM66 °FSunny.8 mph73%29.87 "Hg10 mi
7:56 PM68 °FSunny.9 mph68%29.85 "Hg10 mi
6:56 PM71 °FSunny.10 mph63%29.84 "Hg10 mi
5:56 PM74 °FSunny.12 mph57%29.85 "Hg10 mi
4:56 PM76 °FSunny.12 mph56%29.85 "Hg10 mi
3:56 PM79 °FSunny.10 mph52%29.86 "Hg10 mi
2:56 PM80 °FSunny.12 mph47%29.88 "Hg10 mi
1:56 PM79 °FSunny.10 mph47%29.89 "Hg10 mi
12:56 PM76 °FSunny.7 mph54%29.91 "Hg10 mi
Weather by CustomWeather, © 2016

See weather overviewHow to use our weather pages